Location: Melizzano
(41.1500°N, 14.5000°E)
Time: 21:51:33
(UTC+00:00)

Cosmos 1934 Rocket - Pass Details

Date: 11 May 2021
Orbit: 937 x 1000 km, 83.0° (Epoch: 23 June)

Event Time Altitude Azimuth Distance (km) Brightness Sun altitude
Rises 23:33:56 0° 350° (N) 3,648 8.0 -30.1°
Reaches altitude 10° 23:36:27 10° 349° (N) 2,689 7.1 -30.1°
Enters shadow 23:42:13 72° 297° (WNW) 992 3.9 -29.8°
